AEROCUBE 10 PROBE (44516 NORAD) Tracking and Keplerian Element Data

This shows tracking and keplerian element data for the satellite.

Feedback or suggestion? Click here.




ElementValue
Catalog44516
NameAEROCUBE 10 PROBE
Epoch Orbit2595
Epoch Day42.33155415
Epoch Year2020
RAAN266.3882
Inclination51.6162
Eccentricity0.001453
Argument of Perigee252.3111
Mean Anonmoly107.6314
Mean Motion16.03159076
Decay Rate0.0523518
L11 44516U 19022J 20042.33155415 .05235180 59380-1 11311-1 0 9997
L22 44516 51.6162 266.3882 0014530 252.3111 107.6314 16.03159076 25957

Live tracking and technical data element details for AEROCUBE 10 PROBE (NORAD 44516). AEROCUBE 10 PROBE can be tracked NOW for your location showing map with azimuth and elevation plus other details from your city location.

Track the satellite on the map from your city or location and see movement details for azimuth, elevation, latitude, longitude, range, height, and movement on the map or in text.







IsCatalogInMostPopularTable: catalog: 44516, numindb: 62
Update: records affected: 1



GetName: 44516 AEROCUBE 10 PROBE

Hit Count: updated at: Tue, 07 Apr 2020 21:52:35 GMT